Location: Olmeneta
(45.2333°N, 10.0167°E)
Time: 21:00:14
(UTC+00:00)

Cosmos 1500 - Pass Details

Date: 03 March 2021
Orbit: 499 x 517 km, 82.5° (Epoch: 13 April)

Event Time Altitude Azimuth Distance (km) Brightness Sun altitude
Rises 18:46:49 0° 200° (SSW) 2,580 6.9 -17.8°
Reaches altitude 10° 18:48:58 10° 205° (SSW) 1,700 6.0 -18.2°
Maximum altitude 18:52:36 49° 282° (WNW) 652 4.1 -18.8°
Drops below altitude 10° 18:56:15 10° 358° (N) 1,714 6.0 -19.4°
Sets 18:58:25 0° 4° (N) 2,604 6.9 -19.8°
